KE8BSM Weather Reports


Display with metric or nautical units.
time (UTC)temp
F
wind
direction
speed
MPH
gust
MPH
rain 1hr
in
rain 24hr
in
rain mn
in
humidity
%
barometer
mb
20260509211836 64 221 1.0 3.0 0.00 0.01 0.01 54 1003.4
20260509210816 64 292 3.0 6.0 0.00 0.01 0.01 53 1003.3
20260509205836 64 232 1.0 3.0 0.00 0.01 0.01 52 1003.3
20260509204816 64 242 2.0 4.0 0.00 0.01 0.01 49 1003.3
20260509203816 64 238 3.0 7.0 0.00 0.01 0.01 53 1003.2
20260509202817 64 216 6.0 9.0 0.00 0.01 0.01 51 1003.3
20260509201816 64 225 2.0 7.0 0.00 0.01 0.01 53 1003.5
20260509200817 64 150 2.0 3.0 0.00 0.01 0.01 51 1003.4
20260509195817 63 293 2.0 4.0 0.00 0.01 0.01 51 1003.4
20260509194817 62 156 5.0 8.0 0.00 0.01 0.01 52 1003.3
20260509193817 62 215 4.0 6.0 0.00 0.01 0.01 55 1003.5
20260509192817 61 139 3.0 7.0 0.00 0.01 0.01 56 1003.5
20260509191817 61 186 4.0 7.0 0.00 0.01 0.01 59 1003.5
20260509190818 61 209 4.0 6.0 0.00 0.01 0.01 59 1003.4
20260509185818 60 177 4.0 8.0 0.00 0.01 0.01 59 1003.4
20260509184815 60 222 4.0 6.0 0.00 0.01 0.01 61 1003.6
20260509183835 58 205 2.0 4.0 0.00 0.01 0.01 65 1003.6
20260509182818 57 236 4.0 6.0 0.00 0.01 0.01 67 1003.5
20260509181819 57 169 4.0 6.0 0.00 0.01 0.01 71 1003.5
20260509180818 56 179 2.0 6.0 0.00 0.01 0.01 73 1003.8
20260509175815 57 183 2.0 3.0 0.00 0.01 0.01 70 1003.7
20260509174858 57 226 1.0 2.0 0.01 0.01 0.01 69 1003.7
20260509173816 56 165 2.0 2.0 0.01 0.01 0.01 72 1003.4
20260509172816 56 140 2.0 2.0 0.01 0.01 0.01 75 1003.1
20260509171816 55 158 2.0 2.0 0.01 0.01 0.01 74 1003.4
20260509170816 55 0.0 0.0 0.00 0.01 0.01 76 1004.1
20260509165820 55 197 0.0 2.0 0.00 0.01 0.01 78 1004.5
20260509164819 55 285 1.0 3.0 0.00 0.00 0.00 74 1004.7
20260509163817 55 265 2.0 5.0 0.00 0.00 0.00 75 1004.3
20260509162820 55 233 2.0 3.0 0.00 0.00 0.00 76 1003.8
20260509161837 55 228 2.0 3.0 0.00 0.00 0.00 78 1004.2
20260509160820 56 137 4.0 5.0 0.00 0.00 0.00 77 1004.5
20260509155840 56 333 4.0 6.0 0.00 0.00 0.00 78 1004.2
20260509154821 57 169 2.0 4.0 0.00 0.00 0.00 78 1003.9
20260509153821 57 236 5.0 6.0 0.00 0.00 0.00 78 1003.5
20260509152821 58 320 4.0 6.0 0.00 0.00 0.00 77 1003.2
20260509151821 59 230 5.0 7.0 0.00 0.00 0.00 75 1002.8
20260509150821 59 279 3.0 6.0 0.00 0.00 0.00 76 1002.5
20260509145815 59 196 3.0 5.0 0.00 0.00 0.00 74 1002.4
20260509144816 59 235 6.0 8.0 0.00 0.00 0.00 75 1002.3
20260509143815 59 180 4.0 8.0 0.00 0.00 0.00 75 1002.2
20260509142816 59 220 3.0 5.0 0.00 0.00 0.00 75 1002.1
20260509141816 59 254 3.0 5.0 0.00 0.00 0.00 75 1002.0
20260509140816 59 225 4.0 7.0 0.00 0.00 0.00 76 1002.1
20260509135816 59 159 5.0 7.0 0.00 0.00 0.00 76 1002.1
20260509134816 59 256 5.0 9.0 0.00 0.00 0.00 77 1002.1
20260509133836 59 249 3.0 7.0 0.00 0.00 0.00 75 1002.0
20260509132816 59 267 4.0 6.0 0.00 0.00 0.00 74 1002.1
20260509131837 59 214 5.0 9.0 0.00 0.00 0.00 73 1001.8
20260509130817 59 246 4.0 6.0 0.00 0.00 0.00 73 1001.8
20260509125817 58 249 3.0 5.0 0.00 0.00 0.00 75 1001.9
20260509124817 56 277 3.0 5.0 0.00 0.00 0.00 79 1002.1
20260509123820 56 189 2.0 3.0 0.00 0.00 0.00 82 1002.2
20260509122817 55 222 3.0 5.0 0.00 0.00 0.00 85 1002.4
20260509121820 55 240 3.0 3.0 0.00 0.00 0.00 86 1002.3
20260509120820 54 134 0.0 1.0 0.00 0.00 0.00 87 1002.3
20260509115817 53 160 2.0 4.0 0.00 0.00 0.00 88 1002.0
20260509114818 53 218 4.0 7.0 0.00 0.00 0.00 89 1001.9
20260509113837 53 210 2.0 3.0 0.00 0.00 0.00 90 1002.0
20260509112838 52 218 2.0 3.0 0.00 0.00 0.00 89 1001.9
20260509111820 52 169 1.0 2.0 0.00 0.00 0.00 90 1001.9
20260509110821 52 175 3.0 4.0 0.00 0.00 0.00 90 1001.8
20260509105821 52 194 1.0 3.0 0.00 0.00 0.00 90 1002.1
20260509104821 52 196 3.0 5.0 0.00 0.00 0.00 90 1002.1
20260509103821 52 196 2.0 3.0 0.00 0.00 0.00 90 1002.1
20260509102822 52 188 2.0 2.0 0.00 0.00 0.00 91 1002.4
20260509101821 52 230 2.0 3.0 0.00 0.00 0.00 91 1002.4
20260509100822 51 201 2.0 2.0 0.00 0.00 0.00 91 1002.4
20260509095902 51 111 0.0 1.0 0.00 0.00 0.00 91 1002.8
20260509094822 51 169 2.0 4.0 0.00 0.00 0.00 91 1002.9
20260509093822 51 174 1.0 2.0 0.00 0.00 0.00 91 1002.9
20260509092823 51 210 1.0 3.0 0.00 0.00 0.00 91 1002.9
20260509091822 51 216 1.0 2.0 0.00 0.00 0.00 89 1002.8
20260509090823 51 188 1.0 2.0 0.00 0.00 0.00 89 1002.9
20260509085823 51 174 2.0 3.0 0.00 0.00 0.00 88 1003.1
20260509084817 51 191 1.0 3.0 0.00 0.00 0.00 88 1003.1
20260509083818 51 171 0.0 2.0 0.00 0.00 0.00 87 1003.2
20260509082818 51 199 0.0 1.0 0.00 0.00 0.00 86 1003.3
20260509081818 51 171 2.0 3.0 0.00 0.00 0.00 85 1003.5
20260509080815 51 176 2.0 3.0 0.00 0.00 0.00 84 1003.7
20260509075815 51 92 0.0 1.0 0.00 0.00 0.00 83 1003.7
20260509074815 51 166 1.0 2.0 0.00 0.00 0.00 82 1003.6
20260509073816 51 166 1.0 2.0 0.00 0.00 0.00 80 1003.8
20260509072816 51 232 3.0 5.0 0.00 0.00 0.00 79 1003.9
20260509071836 52 188 1.0 2.0 0.00 0.00 0.00 77 1004.1
20260509070816 52 175 1.0 3.0 0.00 0.00 0.00 75 1004.3
20260509065816 52 198 1.0 2.0 0.00 0.00 0.00 73 1004.5
20260509064837 52 189 1.0 2.0 0.00 0.00 0.00 70 1004.4
20260509063816 52 211 1.0 2.0 0.00 0.00 0.00 65 1004.4
20260509062817 52 200 0.0 2.0 0.00 0.00 0.00 59 1004.5
20260509061817 52 202 1.0 2.0 0.00 0.00 0.00 55 1004.7
20260509060817 52 213 0.0 2.0 0.00 0.00 0.00 52 1004.7
20260509055817 52 0.0 0.0 0.00 0.00 0.00 46 1004.7
20260509054817 52 0.0 0.0 0.00 0.00 0.00 45 1004.8
20260509053837 53 186 1.0 2.0 0.00 0.00 0.00 44 1004.9
20260509052838 53 192 0.0 1.0 0.00 0.00 0.00 43 1005.0
20260509051818 52 177 3.0 4.0 0.00 0.00 0.00 44 1004.8
20260509050815 52 176 1.0 3.0 0.00 0.00 0.00 44 1004.8
20260509045818 51 173 0.0 2.0 0.00 0.00 0.00 46 1004.9
20260509044835 50 135 1.0 2.0 0.00 0.00 0.00 49 1005.0
20260509043815 50 0.0 0.0 0.00 0.00 0.00 50 1005.1
20260509042835 50 0.0 0.0 0.00 0.00 0.00 50 1005.1
20260509041816 50 0.0 0.0 0.00 0.00 0.00 50 1005.2
20260509040836 50 0.0 0.0 0.00 0.00 0.00 51 1005.3
20260509035816 50 138 0.0 2.0 0.00 0.00 0.00 48 1005.4
20260509034816 50 0.0 0.0 0.00 0.00 0.00 48 1005.6
20260509033816 50 139 0.0 2.0 0.00 0.00 0.00 49 1005.7
20260509032816 50 0.0 0.0 0.00 0.00 0.00 49 1005.7
20260509031816 50 0.0 0.0 0.00 0.00 0.00 48 1005.8
20260509030837 51 0.0 0.0 0.00 0.00 0.00 47 1005.9
20260509025817 51 0.0 0.0 0.00 0.00 0.00 47 1006.0
20260509024817 51 127 0.0 1.0 0.00 0.00 0.00 46 1006.1
20260509023817 51 0.0 0.0 0.00 0.00 0.00 45 1006.2
20260509022817 52 137 0.0 1.0 0.00 0.00 0.00 50 1006.4
20260509021817 52 208 0.0 1.0 0.00 0.00 0.00 45 1006.4
20260509020818 52 0.0 0.0 0.00 0.00 0.00 48 1006.4
20260509015838 53 0.0 0.0 0.00 0.00 0.00 45 1006.3
20260509014818 53 0.0 0.0 0.00 0.00 0.00 42 1006.2
20260509013818 54 0.0 0.0 0.00 0.00 0.00 45 1006.2
20260509012815 54 0.0 0.0 0.00 0.00 0.00 41 1006.2
20260509011815 55 0.0 0.0 0.00 0.00 0.00 42 1006.1
20260509010816 56 0.0 0.0 0.00 0.00 0.00 37 1006.1
20260509005816 56 0.0 0.0 0.00 0.00 0.00 38 1006.1
20260509004816 57 0.0 0.0 0.00 0.00 0.00 39 1006.2
20260509003816 58 0.0 0.0 0.00 0.00 0.00 36 1006.2
20260509002816 59 0.0 0.0 0.00 0.00 0.00 35 1006.2
20260509001816 60 0.0 0.0 0.00 0.00 0.00 33 1006.2
20260509000816 60 0.0 0.0 0.00 0.00 0.00 29 1006.3
20260508235837 60 20 1.0 2.0 0.00 0.00 0.00 30 1006.5
20260508234837 61 240 0.0 1.0 0.00 0.00 0.00 29 1006.6
20260508233815 61 227 0.0 2.0 0.00 0.00 0.00 27 1006.7
20260508232816 62 88 1.0 2.0 0.00 0.00 0.00 30 1006.8
20260508231816 62 241 0.0 2.0 0.00 0.00 0.00 27 1006.9
20260508230816 62 210 1.0 2.0 0.00 0.00 0.00 31 1007.0
20260508225816 63 32 3.0 4.0 0.00 0.00 0.00 28 1006.9
20260508224815 63 198 2.0 4.0 0.00 0.00 0.00 31 1006.9
20260508223815 63 14 4.0 7.0 0.00 0.00 0.00 32 1006.9
20260508222835 63 296 2.0 6.0 0.00 0.00 0.00 29 1007.0
20260508221815 63 219 2.0 3.0 0.00 0.00 0.00 28 1007.0
20260508220815 63 295 2.0 4.0 0.00 0.00 0.00 30 1007.1
20260508215815 63 198 3.0 4.0 0.00 0.00 0.00 28 1007.0
20260508214816 62 267 2.0 3.0 0.00 0.00 0.00 30 1007.0
20260508213856 63 44 3.0 7.0 0.00 0.00 0.00 29 1007.0
20260508212816 63 345 4.0 5.0 0.00 0.00 0.00 30 1007.1